Voltar ao catálogo

ONEWEB-0603

AtivoComunicaçõesPO
NORAD 54667·PAYLOAD·🇬🇧 United Kingdom

Lançado Dec 8, 2022 de Cape Canaveral Space Force Station

Loading…

Próximas Passagens (próximas 24 horas)

TLE

AtualizadoSource: CelesTrak SupGP

Época: Sep 14, 2026, 17:05 UTC

1 54667C 22166AB  26257.71233057  .00001172  00000+0  28422-2 0  2572
2 54667  87.9279 226.1427 0002218  83.7125 309.8637 13.21820272    10

Acompanhe ONEWEB-0603 em tempo real com AllMySat

Download on the App Store